Wind_Speed
21 20 21 20 18 17 14 12 11 10 10 9 8 8 8 8 9 10 10 12 13 12 13 13 12 10 8 9 11 12 14 15 17 18 16 14 13 13 15 13 9 7 8
18 17 21 22 19 18 14 11 10 10 11 10 10 10 11 12 12 11 10 10 10 10 10 11 11 11 13 12 11 13 14 15 16 16 14 13 17 17 19 16 10 11 10
17 15 17 22 19 17 14 11 11 11 11 9 10 12 12 14 15 14 13 12 10 9 11 12 12 12 9 9 10 12 13 13 16 18 17 17 20 19 19 13 11 12 13
16 16 17 19 18 16 14 12 11 9 10 10 10 12 13 14 14 14 15 14 15 12 10 10 12 14 11 12 12 10 10 11 14 15 19 19 20 19 22 18 15 15 14
19 16 16 16 18 18 16 16 17 16 13 14 16 15 15 18 17 16 14 13 14 14 14 11 12 13 12 12 9 11 12 11 11 11 15 18 18 22 24 18 15 14 13
14 17 15 12 24 23 22 22 21 15 6 12 19 21 21 21 21 19 17 17 14 15 15 14 11 12 13 12 8 8 9 5 4 4 8 11 11 15 21 20 18 17 16
7 9 24 21 36 25 26 27 26 20 14 19 23 25 24 22 22 20 19 20 19 17 16 15 13 11 13 12 9 5 5 5 6 5 5 6 10 12 16 23 21 17 16
15 13 21 41 39 28 29 32 30 30 27 22 22 27 28 26 25 25 23 23 23 20 18 16 14 13 11 11 9 7 7 8 8 7 7 9 9 9 13 17 17 17 17
4 18 21 27 31 27 29 27 27 29 29 25 25 29 30 30 27 27 26 26 24 22 18 18 17 15 12 10 8 6 7 8 9 8 8 8 8 7 8 11 15 15 18
5 12 17 20 26 28 29 30 31 34 32 27 22 35 32 35 25 29 31 29 27 24 19 19 17 16 13 10 8 6 6 4 5 9 8 7 9 7 7 9 12 15 16
7 7 10 13 15 18 25 30 32 34 33 30 30 33 34 39 43 31 37 32 29 25 21 19 18 18 16 11 11 8 7 6 5 5 5 4 5 6 7 8 8 11 13
11 10 8 9 11 13 20 24 29 30 34 38 41 43 33 34 31 41 37 34 29 25 22 20 21 20 16 13 11 10 9 9 8 7 6 5 4 5 6 6 7 7 7
17 17 16 12 11 12 14 17 20 24 30 32 32 32 29 29 30 29 35 33 27 24 20 19 22 21 17 15 11 10 9 10 9 8 7 7 7 7 7 6 6 7 9
20 18 17 18 15 13 15 16 16 20 26 28 25 23 23 24 21 26 33 28 25 21 21 22 22 20 16 14 13 11 10 10 9 8 9 10 11 11 10 10 10 9 10
20 18 18 18 17 18 18 18 18 18 17 13 13 14 17 20 22 24 26 24 22 20 22 23 23 21 17 15 14 13 13 10 9 10 10 10 11 12 13 14 14 13 14
21 20 17 17 16 14 16 18 21 17 14 13 9 8 13 12 13 18 17 18 15 18 22 23 22 19 16 15 14 13 12 9 9 8 8 9 11 12 13 14 13 13 12
20 21 14 13 13 15 11 14 18 16 17 17 15 12 12 11 15 22 19 18 17 17 20 20 18 16 14 12 10 8 9 9 7 5 5 4 4 9 12 10 6 8 9
14 13 16 16 15 16 11 12 13 15 17 18 18 16 19 17 17 17 22 22 21 19 17 14 12 11 11 10 8 9 8 7 6 6 6 6 7 7 7 7 7 9 8
12 11 15 16 16 15 13 11 10 11 11 13 14 8 16 23 21 22 25 23 20 17 15 13 12 14 11 12 11 9 8 8 8 6 5 4 3 2 3 3 2 2 2
11 10 13 14 14 17 16 14 11 5 4 9 15 20 18 19 17 20 16 18 19 16 15 15 15 14 13 11 11 11 11 10 8 7 6 4 2 0 1 2 2 3 3
12 9 10 12 12 11 14 8 2 5 7 6 2 7 8 10 18 18 10 8 13 19 18 13 12 11 12 12 8 8 8 7 6 4 3 2 1 1 1 1 2 2 2
11 7 7 9 9 6 7 5 5 3 5 5 10 12 11 13 17 15 18 16 15 19 17 12 10 10 9 7 5 5 3 1 1 3 2 3 3 3 4 5 4 3 3
9 5 6 8 9 8 8 8 3 5 8 11 11 11 11 12 10 9 10 11 17 17 15 12 9 8 8 7 6 5 5 4 4 4 3 3 3 2 2 3 4 4 5
9 7 8 9 8 6 5 3 1 2 7 12 8 11 7 11 11 10 13 17 17 18 14 9 8 8 10 9 8 6 5 4 3 3 3 3 3 2 2 2 3 5 6
7 6 9 9 7 6 6 5 4 8 11 18 14 13 9 11 17 17 17 16 14 12 11 11 12 12 11 9 6 5 4 3 3 3 3 2 2 2 3 3 5 6 8
9 9 10 12 9 7 6 6 5 5 5 8 8 11 12 13 14 14 13 12 14 14 13 13 12 10 8 7 6 5 4 3 3 2 1 1 1 2 3 5 6 8 10
Wind_Direction
222 224 219 210 215 219 222 236 250 248 242 251 261 265 266 262 252 248 246 240 238 238 246 253 257 260 266 270 280 279 268 267 264 269 274 277 265 248 244 236 246 203 194
211 221 225 217 215 218 220 231 247 240 239 257 261 263 268 265 261 260 253 246 247 250 247 249 248 253 260 260 266 268 266 255 269 271 264 266 270 254 241 232 227 213 208
214 216 231 226 221 220 221 230 234 233 237 235 242 255 260 258 252 242 243 242 243 261 254 253 241 242 252 261 275 267 262 260 262 260 263 262 257 245 228 223 216 211 209
217 224 235 237 226 221 212 219 222 221 228 245 260 267 266 256 245 243 246 246 245 251 257 252 255 242 237 262 266 249 254 264 266 260 253 251 246 239 226 226 222 222 220
219 232 247 248 222 218 207 205 201 192 209 229 232 237 247 244 243 245 238 248 254 258 254 253 250 241 255 273 270 272 267 254 258 255 250 246 246 231 220 226 217 220 224
193 201 258 278 227 212 211 208 206 202 225 243 247 242 228 232 233 231 235 242 247 254 261 253 247 235 246 265 271 267 253 229 224 265 259 230 238 237 229 219 228 222 224
233 259 323 294 276 226 226 225 217 221 236 279 276 254 240 236 229 238 243 254 258 262 257 254 246 241 247 254 255 260 218 210 230 239 251 264 254 258 242 228 225 230 234
262 267 285 251 259 241 235 232 234 233 240 273 271 262 256 241 232 232 238 250 257 259 258 243 239 247 232 245 252 232 212 202 225 239 242 243 255 242 240 240 238 236 237
203 250 256 272 256 256 250 253 259 238 254 262 256 260 266 244 242 235 233 243 254 255 254 241 240 232 225 224 234 226 206 213 219 229 238 232 243 241 225 219 233 235 238
186 236 255 255 261 263 267 264 258 247 260 255 261 261 273 247 236 245 234 234 244 247 247 239 226 217 213 218 221 225 199 193 212 212 228 231 228 230 219 218 222 231 234
307 297 284 277 260 262 263 253 248 244 246 251 255 271 276 266 249 259 235 233 240 243 241 232 217 207 207 215 217 221 212 201 185 195 202 195 209 203 207 215 221 223 227
313 318 318 300 281 256 255 254 248 248 259 261 269 278 271 265 245 254 238 226 233 239 239 226 215 207 208 214 215 211 205 208 205 209 219 223 206 191 195 198 201 208 212
332 323 317 330 317 295 284 276 275 273 271 270 273 278 271 267 260 253 223 227 222 228 228 213 209 209 207 211 216 215 212 210 215 221 223 228 216 208 219 227 228 227 227
346 334 328 319 318 314 303 296 291 289 282 276 276 275 262 266 263 237 211 217 216 214 205 198 202 208 203 204 208 213 214 215 221 226 225 227 234 232 232 232 235 243 249
355 344 330 323 303 298 298 300 301 303 290 280 288 263 267 267 253 219 201 207 220 209 198 197 199 199 197 203 205 213 216 226 241 239 246 243 244 248 250 253 258 263 267
2 353 349 334 310 292 291 293 299 291 291 291 317 236 227 251 231 182 178 195 204 202 195 196 197 199 197 200 206 218 225 221 229 237 244 245 251 255 253 251 255 259 262
358 356 353 349 327 311 310 290 281 288 284 282 282 252 240 215 208 187 203 189 187 190 198 196 205 205 205 203 196 200 217 227 225 249 262 259 262 271 264 250 264 270 263
341 354 1 352 352 342 329 322 307 288 287 285 281 273 221 197 200 231 198 179 183 195 198 194 193 203 196 202 213 217 220 214 222 222 221 236 244 257 253 273 265 260 268
321 326 338 354 355 3 356 350 343 318 310 301 306 291 204 210 223 203 189 182 177 181 182 191 201 203 192 184 180 189 196 201 209 222 182 184 166 163 198 203 203 212 200
312 309 321 337 341 349 351 341 356 355 108 100 99 106 120 134 132 130 136 153 151 158 157 158 154 160 159 161 156 144 136 128 123 116 117 115 120 61 301 247 228 222 251
311 305 308 329 346 338 343 310 324 166 162 145 101 121 109 129 130 137 123 115 140 149 138 139 152 152 139 132 140 137 126 127 125 120 112 107 118 103 84 81 144 169 228
316 293 312 324 342 325 299 343 358 246 197 141 132 129 132 131 139 166 166 173 178 164 143 149 149 141 135 134 142 131 135 132 188 165 155 121 103 86 88 90 86 70 60
336 322 330 337 342 351 315 267 299 237 187 159 148 138 149 150 121 121 145 154 157 155 156 157 148 143 150 165 174 171 172 168 160 157 160 134 105 70 49 30 17 2 350
16 13 2 358 7 26 357 341 286 171 179 163 151 151 141 152 140 135 135 133 135 131 135 147 154 150 143 138 135 135 140 154 168 186 192 179 185 209 239 289 324 326 317
16 2 8 9 17 26 42 65 116 127 133 154 167 190 194 172 160 147 137 137 136 138 137 135 133 129 126 121 116 119 134 160 178 198 216 221 219 226 244 258 276 292 298
23 34 40 39 34 26 37 47 73 115 157 171 185 157 138 137 142 138 138 140 140 135 132 132 128 126 125 127 128 130 135 139 140 132 119 58 345 315 303 294 299 302 306
Height
1474 1480 1484 1484 1486 1489 1493 1498 1501 1504 1504 1505 1506 1507 1508 1508 1506 1506 1506 1506 1505 1506 1507 1509 1510 1512 1513 1514 1515 1515 1515 1517 1518 1520 1520 1521 1522 1524 1524 1526 1528 1528 1529
1469 1476 1480 1481 1480 1484 1489 1494 1498 1500 1502 1504 1504 1505 1506 1507 1506 1505 1505 1504 1505 1505 1505 1504 1505 1507 1509 1511 1512 1513 1514 1515 1516 1515 1516 1517 1519 1520 1520 1522 1524 1527 1528
1469 1474 1478 1480 1479 1483 1487 1489 1491 1495 1497 1498 1499 1499 1500 1501 1502 1502 1502 1502 1503 1503 1502 1502 1503 1503 1505 1506 1507 1508 1510 1511 1511 1511 1511 1513 1515 1517 1517 1517 1521 1523 1526
1469 1472 1475 1479 1478 1482 1484 1485 1486 1487 1491 1492 1492 1493 1495 1496 1496 1497 1498 1498 1499 1499 1499 1500 1501 1502 1501 1502 1503 1503 1504 1506 1507 1507 1508 1510 1511 1513 1514 1516 1518 1523 1525
1464 1467 1474 1474 1475 1478 1477 1480 1479 1476 1479 1481 1481 1482 1484 1485 1490 1492 1493 1495 1497 1497 1496 1497 1497 1499 1500 1499 1499 1501 1501 1500 1501 1503 1504 1505 1507 1508 1510 1514 1515 1518 1522
1460 1460 1466 1466 1472 1472 1471 1472 1472 1468 1461 1467 1472 1471 1471 1477 1480 1483 1487 1489 1489 1492 1494 1494 1493 1494 1497 1497 1495 1495 1497 1497 1498 1499 1499 1501 1504 1506 1509 1511 1514 1516 1519
1454 1458 1453 1458 1466 1467 1467 1468 1466 1464 1465 1465 1467 1466 1471 1473 1477 1482 1485 1487 1488 1488 1488 1490 1491 1491 1492 1495 1493 1492 1493 1495 1497 1498 1498 1499 1501 1503 1506 1509 1510 1513 1516
1451 1448 1445 1467 1466 1465 1462 1463 1464 1460 1461 1461 1463 1465 1466 1470 1473 1476 1479 1482 1484 1484 1485 1485 1487 1489 1488 1491 1492 1489 1490 1492 1494 1497 1498 1498 1500 1500 1501 1505 1508 1511 1514
1446 1456 1456 1457 1459 1455 1456 1457 1456 1455 1455 1455 1458 1461 1462 1464 1469 1469 1472 1476 1478 1480 1480 1482 1483 1484 1486 1487 1488 1488 1487 1489 1491 1494 1497 1497 1498 1499 1501 1503 1505 1508 1510
1449 1454 1452 1452 1450 1449 1449 1449 1452 1452 1449 1452 1452 1455 1456 1458 1461 1464 1463 1467 1470 1474 1475 1476 1479 1481 1482 1484 1486 1487 1486 1488 1488 1490 1493 1495 1496 1497 1499 1501 1503 1505 1507
1446 1446 1447 1444 1443 1442 1442 1444 1446 1445 1444 1445 1446 1448 1447 1449 1451 1456 1457 1458 1464 1469 1471 1472 1474 1476 1479 1480 1483 1484 1486 1486 1487 1490 1493 1494 1496 1496 1497 1499 1500 1501 1502
1443 1443 1445 1442 1441 1440 1440 1440 1440 1439 1438 1438 1437 1436 1436 1438 1441 1445 1449 1452 1457 1463 1466 1468 1470 1472 1474 1476 1479 1481 1483 1486 1486 1488 1491 1493 1495 1496 1497 1499 1500 1500 1501
1437 1437 1439 1438 1435 1434 1433 1434 1431 1431 1429 1428 1427 1426 1426 1427 1428 1432 1439 1446 1449 1456 1461 1464 1466 1469 1469 1472 1474 1477 1479 1483 1484 1486 1487 1492 1493 1494 1496 1499 1500 1500 1500
1434 1432 1431 1431 1431 1428 1428 1427 1423 1422 1420 1419 1417 1419 1418 1421 1421 1426 1431 1438 1443 1450 1454 1458 1463 1467 1466 1468 1471 1473 1476 1478 1480 1483 1485 1488 1491 1492 1493 1494 1495 1496 1497
1431 1428 1425 1424 1422 1421 1421 1421 1419 1417 1416 1416 1413 1413 1416 1416 1417 1420 1425 1434 1441 1446 1450 1454 1459 1461 1461 1464 1466 1469 1473 1476 1477 1478 1482 1484 1487 1489 1490 1491 1492 1493 1494
1435 1430 1427 1425 1424 1421 1418 1417 1416 1416 1415 1414 1413 1410 1415 1417 1419 1417 1423 1431 1438 1443 1448 1453 1456 1458 1458 1461 1464 1467 1468 1471 1473 1476 1478 1480 1483 1485 1486 1488 1489 1489 1490
1434 1432 1433 1430 1426 1420 1417 1417 1415 1413 1413 1412 1411 1413 1415 1414 1419 1422 1422 1429 1436 1440 1446 1452 1455 1455 1457 1460 1463 1464 1467 1467 1469 1472 1473 1475 1478 1481 1483 1484 1484 1486 1486
1434 1432 1431 1427 1424 1418 1413 1413 1413 1411 1406 1407 1407 1407 1411 1412 1417 1421 1421 1423 1428 1436 1443 1447 1451 1455 1457 1460 1462 1464 1465 1466 1467 1468 1469 1473 1475 1478 1480 1482 1483 1485 1484
1433 1430 1428 1425 1421 1415 1414 1413 1410 1407 1406 1404 1400 1403 1406 1407 1408 1413 1416 1420 1428 1436 1441 1444 1449 1452 1455 1458 1461 1464 1464 1465 1465 1465 1468 1471 1474 1476 1479 1479 1480 1481 1483
1428 1426 1426 1423 1420 1418 1415 1414 1410 1407 1408 1407 1407 1405 1405 1408 1412 1413 1418 1424 1426 1434 1440 1446 1449 1453 1455 1457 1459 1462 1464 1465 1466 1466 1468 1470 1472 1475 1478 1480 1480 1481 1482
1426 1426 1425 1422 1418 1418 1419 1417 1415 1415 1414 1414 1412 1413 1414 1416 1415 1419 1423 1425 1429 1433 1441 1446 1451 1455 1456 1457 1461 1463 1464 1465 1466 1469 1471 1472 1473 1475 1476 1478 1481 1481 1481
1427 1425 1424 1423 1420 1419 1423 1420 1416 1416 1417 1416 1416 1417 1419 1421 1421 1426 1427 1431 1432 1434 1440 1446 1450 1454 1457 1459 1462 1463 1464 1465 1466 1467 1470 1471 1473 1475 1476 1477 1479 1481 1482
1426 1424 1423 1421 1420 1417 1420 1421 1417 1416 1417 1417 1419 1420 1422 1424 1425 1429 1430 1432 1435 1439 1442 1447 1451 1454 1457 1460 1461 1461 1463 1465 1467 1469 1471 1470 1471 1475 1477 1477 1478 1479 1480
1423 1423 1422 1420 1419 1418 1422 1420 1418 1416 1417 1419 1422 1424 1426 1428 1430 1433 1435 1436 1440 1442 1447 1450 1452 1454 1457 1459 1460 1461 1463 1466 1467 1469 1471 1470 1470 1471 1472 1473 1474 1476 1476
1427 1426 1424 1423 1422 1422 1423 1421 1420 1421 1421 1422 1424 1427 1428 1431 1433 1435 1437 1441 1443 1446 1448 1451 1453 1455 1457 1458 1460 1462 1464 1466 1467 1468 1470 1470 1470 1469 1470 1470 1470 1471 1473
1430 1428 1428 1427 1426 1425 1424 1424 1424 1424 1424 1425 1427 1429 1431 1434 1435 1438 1440 1443 1445 1446 1449 1453 1455 1457 1458 1459 1460 1462 1464 1465 1466 1467 1467 1468 1468 1468 1468 1469 1468 1468 1468